sat.trackr.live / text

‹ back to catalog

ONEWEB-0340

NORAD 49206 · 2021-083W

PAYLOAD ACTIVE UNKNOWN

§ Identity

Operator
Country
UK
Launch date
2021-09-14
Launch site
TYMSC
Launch vehicle
Mass (kg)
RCS (m²)

Purposes: comms

External: N2YO · Heavens-Above · Gunter

§ Orbital elements

Epoch: 2026-09-20T03:08:28.840704Z

Period
109.20 min
Inclination
87.9164°
Eccentricity
0.0002033
Mean motion
13.18685466 rev/d
Perigee alt
1,188.2 km
Apogee alt
1,191.3 km
Semi-major
7,567.9 km
B*
-7.2246e-4
RAAN
316.5932°
Arg perigee
102.7202°
Mean anomaly
257.4158°
Rev number
24,248

§ Raw data

ONEWEB-03401 49206U 21083W   26263.13088936 -.00000272  00000+0 -72246-3 0  99982 49206  87.9164 316.5932 0002033 102.7202 257.4158 13.18685466242489

JSON: /api/v1/satellites/49206 · /tle

For live sub-satellite position, see the globe view (requires WebGL).

§ Visibility from observer

Set your observer location to see the next 7 days of passes ≥ 10°. The values pass through the URL so the page stays shareable.

No JS? Fill the form by hand. The geolocation button needs JavaScript.